This is the latest recevied weather packets stored in our database for station/object ON7EQ-13. If no packets are shown the sender has not sent any weather packets the latest 10 day(s).
| Time | Temp. | Humidity | Pressure | Rain* | Wind** | Luminosity | Snow |
|---|---|---|---|---|---|---|---|
| 1778150650 | 18.89° C | 56% | 1015.2 hPa | - | - | - | - |
| 1778150050 | 20° C | 53% | 1015.3 hPa | - | - | - | - |
| 1778149450 | 20° C | 54% | 1015.2 hPa | - | - | - | - |
| 1778148850 | 19.44° C | 57% | 1015.3 hPa | - | - | - | - |
| 1778148250 | 18.89° C | 57% | 1015.2 hPa | - | - | - | - |
| 1778147650 | 18.33° C | 58% | 1015.1 hPa | - | - | - | - |
| 1778147050 | 18.33° C | 61% | 1015.1 hPa | - | - | - | - |
| 1778146450 | 17.78° C | 62% | 1015.1 hPa | - | - | - | - |
| 1778145850 | 17.22° C | 63% | 1015.1 hPa | - | - | - | - |
| 1778145250 | 16.67° C | 64% | 1015.1 hPa | - | - | - | - |
| 1778144650 | 16.67° C | 65% | 1015 hPa | - | - | - | - |
| 1778144050 | 16.11° C | 67% | 1015 hPa | - | - | - | - |
| 1778143450 | 16.11° C | 68% | 1015 hPa | - | - | - | - |
| 1778142850 | 15.56° C | 68% | 1014.9 hPa | - | - | - | - |
| 1778142250 | 15.56° C | 72% | 1015 hPa | - | - | - | - |
| 1778141650 | 15° C | 73% | 1015 hPa | - | - | - | - |
| 1778141050 | 14.44° C | 77% | 1015 hPa | - | - | - | - |
| 1778140450 | 13.89° C | 80% | 1014.9 hPa | - | - | - | - |
| 1778139850 | 13.33° C | 81% | 1014.8 hPa | - | - | - | - |
| 1778139250 | 12.78° C | 84% | 1014.7 hPa | - | - | - | - |
| 1778138650 | 12.22° C | 88% | 1014.7 hPa | - | - | - | - |
| 1778138050 | 11.67° C | 87% | 1014.6 hPa | - | - | - | - |
| 1778137450 | 11.67° C | 87% | 1014.6 hPa | - | - | - | - |
| 1778136850 | 11.67° C | 88% | 1014.6 hPa | - | - | - | - |
| 1778136250 | 11.67° C | 90% | 1014.6 hPa | - | - | - | - |
* Rain since midnight (hover to see other rain measurements)
** Current wind speed in m/s (hover to see current wind gust speed)